User: anonymous   Login
Location: Unspecified
(0.0000°N, 0.0000°E)
Time: 04:30:15
(UTC+00:00)
Language:

SES 6 - Orbit

View from above orbital plane
View from above orbital plane
View from above satellite
View from above satellite

Ground track
Ground track

The orbit data is extracted from the following two-line orbital elements,

1 39172U 13026A   15245.15852801 -.00000289  00000-0  00000+0 0  9990
2 39172   0.0334 290.0693 0001872 240.6019 186.8675  1.00269666  8211
Epoch (UTC): 02 September 2015 03:48:16
Eccentricity: 0.0001872
inclination: 0.0334°
perigee height: 35779 km
apogee height: 35795 km
right ascension of ascending node: 290.0693°
argument of perigee: 240.6019°
revolutions per day: 1.00269666
mean anomaly at epoch: 186.8675°
orbit number at epoch: 821

The dashed part of the orbit path shows where the satellite is in the earth's shadow,  

DLR